"Pseudo-MPEC" for p0002f
Created 2025 Apr 21 21:31:08 UT using Find_Orb
Click here for an explanation of pseudo-MPECs
Astrometry: p0002f * C2025 04 01.61177418 36 24.732+29 25 12.11 ~41L2 21.39wXNEOCPF52 p0002f C2025 04 01.61753118 36 24.694+29 25 12.17 ~41L2 21.26wXNEOCPF52 p0002f C2025 04 01.62334118 36 24.683+29 25 12.23 ~41L2 21.25wXNEOCPF52 p0002f C2025 04 01.62916618 36 24.656+29 25 12.17 ~41L2 21.26wXNEOCPF52 Station data: (F52) Pan-STARRS 2, Haleakala (N20.707382 W156.255910) US/Hawaii. Observers J. Bulger, T. Dukes, T. Lowe, A. Schultz, M. Willman. Measurers K. Chambers, S. Chastel, T. de Boer, L. Denneau, J. Fairlamb, H. Flewelling, M. Huber, C.-C. Lin, E. Magnier, Y. Ramanjooloo, R. Wainscoat, R. Weryk. 1.8-m Ritchey-Chrétien + CCD. Orbital elements: p0002f Perihelion 2025 Aug 5.20792 +/- 99.4 TT = 4:59:24 (JD 2460892.70792) Epoch 2025 Apr 2.0 TT = JDT 2460767.5 Earth MOID: 0.2979 AutoNEOCP M 299.81240781 +/- 70 (J2000 ecliptic) n 0.48070117 +/- 0.473 Peri. 226.79271 +/- 110 a 1.61393458 +/- 1.06 Node 63.17327 +/- 33 e 0.2337416 +/- 0.278 Incl. 69.59775 +/- 22 P 2.050/748.892d H 18.36 G 0.15 U 12.2 SR q 1.23669091 +/- 0.72 Q 1.99117825 +/- 59 From 4 observations 2025 Apr. 1 (25.0 min); mean residual 0".06
Residuals in arcseconds: 250401 F52 .06+ .02- 250401 F52 .05+ .05+ 250401 F52 .12- .01+ 250401 F52 .02+ .03- Ephemerides (geocentric): Date (UTC) HH RA Dec delta r elong mag " sig PA ---- -------- ------------ ------------ ------ ------ ----- --- -------- 2025 04 21 22 18 22 47.075 +28 48 57.81 .81316 1.4397 104.2 20.4 55d 109 2025 04 21 23 18 22 43.198 +28 48 44.94 .81247 1.4396 104.2 20.4 55d 109 2025 04 22 00 18 22 39.309 +28 48 32.01 .81178 1.4394 104.3 20.4 55d 109 2025 04 22 01 18 22 35.407 +28 48 19.01 .81109 1.4393 104.3 20.4 55d 109 2025 04 22 02 18 22 31.493 +28 48 05.96 .81041 1.4392 104.4 20.4 56d 109 2025 04 22 03 18 22 27.567 +28 47 52.85 .80972 1.4391 104.4 20.3 56d 109 2025 04 22 04 18 22 23.629 +28 47 39.68 .80903 1.4389 104.4 20.3 56d 108 2025 04 22 05 18 22 19.679 +28 47 26.44 .80834 1.4388 104.5 20.3 56d 108 2025 04 22 06 18 22 15.716 +28 47 13.15 .80766 1.4387 104.5 20.3 56d 108 2025 04 22 07 18 22 11.741 +28 46 59.79 .80697 1.4385 104.6 20.3 56d 108 2025 04 22 08 18 22 07.754 +28 46 46.37 .80628 1.4384 104.6 20.3 56d 108 2025 04 22 09 18 22 03.754 +28 46 32.88 .80559 1.4383 104.6 20.3 56d 108 2025 04 22 10 18 21 59.742 +28 46 19.34 .80491 1.4381 104.7 20.3 57d 108 2025 04 22 11 18 21 55.717 +28 46 05.73 .80422 1.4380 104.7 20.3 57d 108 2025 04 22 12 18 21 51.680 +28 45 52.06 .80353 1.4379 104.7 20.3 57d 108 2025 04 22 13 18 21 47.631 +28 45 38.32 .80284 1.4377 104.8 20.3 57d 108 2025 04 22 14 18 21 43.569 +28 45 24.53 .80216 1.4376 104.8 20.3 57d 108 2025 04 22 15 18 21 39.495 +28 45 10.66 .80147 1.4375 104.9 20.3 57d 108 2025 04 22 16 18 21 35.408 +28 44 56.74 .80078 1.4374 104.9 20.3 57d 108 2025 04 22 17 18 21 31.308 +28 44 42.75 .80009 1.4372 104.9 20.3 58d 108 2025 04 22 18 18 21 27.196 +28 44 28.69 .79941 1.4371 105.0 20.3 58d 109 2025 04 22 19 18 21 23.071 +28 44 14.57 .79872 1.4370 105.0 20.3 58d 109 2025 04 22 20 18 21 18.934 +28 44 00.39 .79803 1.4368 105.1 20.3 58d 109 2025 04 22 21 18 21 14.783 +28 43 46.14 .79734 1.4367 105.1 20.3 58d 109 2025 04 22 22 18 21 10.621 +28 43 31.82 .79666 1.4366 105.1 20.3 58d 109 2025 04 22 23 18 21 06.445 +28 43 17.44 .79597 1.4364 105.2 20.3 58d 109 2025 04 23 00 18 21 02.257 +28 43 02.99 .79528 1.4363 105.2 20.3 59d 109 2025 04 23 01 18 20 58.056 +28 42 48.48 .79459 1.4362 105.3 20.3 59d 109 2025 04 23 02 18 20 53.842 +28 42 33.90 .79391 1.4360 105.3 20.3 59d 109 2025 04 23 03 18 20 49.615 +28 42 19.25 .79322 1.4359 105.3 20.3 59d 109 2025 04 23 04 18 20 45.375 +28 42 04.53 .79253 1.4358 105.4 20.3 59d 109 2025 04 23 05 18 20 41.123 +28 41 49.75 .79185 1.4357 105.4 20.3 59d 109 2025 04 23 06 18 20 36.857 +28 41 34.90 .79116 1.4355 105.4 20.3 59d 109 2025 04 23 07 18 20 32.579 +28 41 19.98 .79047 1.4354 105.5 20.3 59d 109 2025 04 23 08 18 20 28.287 +28 41 04.99 .78978 1.4353 105.5 20.3 59d 109 2025 04 23 09 18 20 23.983 +28 40 49.94 .78910 1.4351 105.6 20.3 60d 109 2025 04 23 10 18 20 19.665 +28 40 34.81 .78841 1.4350 105.6 20.3 60d 109 2025 04 23 11 18 20 15.335 +28 40 19.62 .78772 1.4349 105.6 20.3 60d 109 2025 04 23 12 18 20 10.991 +28 40 04.36 .78703 1.4347 105.7 20.3 60d 109 2025 04 23 13 18 20 06.634 +28 39 49.02 .78635 1.4346 105.7 20.3 60d 109 2025 04 23 14 18 20 02.265 +28 39 33.62 .78566 1.4345 105.8 20.3 60d 109 2025 04 23 15 18 19 57.881 +28 39 18.15 .78497 1.4343 105.8 20.3 60d 108 2025 04 23 16 18 19 53.485 +28 39 02.61 .78428 1.4342 105.8 20.3 60d 108 2025 04 23 17 18 19 49.076 +28 38 46.99 .78360 1.4341 105.9 20.3 60d 108 2025 04 23 18 18 19 44.653 +28 38 31.31 .78291 1.4340 105.9 20.3 60d 108 2025 04 23 19 18 19 40.217 +28 38 15.55 .78222 1.4338 106.0 20.3 60d 108 2025 04 23 20 18 19 35.768 +28 37 59.72 .78154 1.4337 106.0 20.3 60d 108 2025 04 23 21 18 19 31.305 +28 37 43.82 .78085 1.4336 106.0 20.3 60d 108